Find Starlink 31446

NORAD ID: 59315 Int'l Des: 2024-056 Owner: SPXS Country: US Constellation: starlink operational
LEOCIRCULAR

Current View

Loading 3D Globe...

About Starlink 31446

Starlink 31446 (NORAD 59315) is a starlink constellation satellite (v2 mini) launched Mar 24, 2024 by SPXS of US. It operates in LEO, CIRCULAR orbit with a mass of 730.00 kg.

Upcoming Passes

Passes for default location (London). Set your location on the main map for personalized predictions.

Altitude History

Loading altitude history...

Two-Line Element Set

1 59315U 24056V 26264.56190493 -.00000261 00000-0 40772-7 0 9994
2 59315 43.0037 204.2504 0001340 263.5573 96.5126 15.27573367141111
Epoch: Sep 21, 2026 • Age: 8 hours

Current Status

Altitude 482.6 km
Apogee / Perigee N/A
Velocity 7.63 km/s
Sub-Earth Point 15.58°N, 102.58°W
Launch Date Mar 24, 2024
Age 2.4 years
Type internet

Technical Details

Classification Payload
Mass 730.00 kg
Dry Mass 700.00 kg
Length 0.30 m
Span 29.00 m
Shape ? Box + pan
Manufacturer SPXS
Bus Type Starlink V2M
Phase Status In Orbit
Owner/State SPXS/US

Most Searched